Regional Weather Roundup
Issued by NWS

Home | Current Version | Previous Version | Text Only | Print | Product List | Glossary Off
Versions: 1 2 3 4 5 6 7 8 9 10 11 12 13 14 15 16 17 18 19 20 21 22 23 24 25 26 27 28 29

000
ASUS45 KGTF 250010
RWRMT
MONTANA HOURLY WEATHER ROUNDUP
NATIONAL WEATHER SERVICE GREAT FALLS MT
600 PM MDT FRI APR 24 2015

NOTE: "FAIR" INDICATES FEW OR NO CLOUDS BELOW 12000 FEET WITH NO
SIGNIFICANT WEATHER AND/OR OBSTRUCTIONS TO VISIBILITY.

MTZ001>007-043-250100-
WEST OF THE DIVIDE

CITY           SKY/WX    TMP DP  RH WIND       PRES   REMARKS
KALISPELL      CLOUDY    52  20  28 SW13      29.73R
MISSOULA       CLOUDY    51  22  31 NW12      29.75R
BUTTE          LGT RAIN  37  34  89 NW13      29.71R WCI  29
DEER LODGE       N/A     45  30  57 NW14G20   29.74S
EUREKA           N/A     54  18  24 SW8G17    29.72
HAMILTON         N/A     52  25  35 W6        29.72S
LIBBY            N/A     54  23  30 SE3       29.75S
$$

MTZ008-052>055-250100-
SOUTHWEST MONTANA

CITY           SKY/WX    TMP DP  RH WIND       PRES   REMARKS
BOZEMAN        LGT RAIN  47  39  74 W20       29.62R
DILLON         RAIN      39  36  89 N12       29.68R FOG     WCI  32
$$

MTZ009-010-012-014-046-048-049-054-250100-
EAST SLOPES AND CENTRAL MONTANA

CITY           SKY/WX    TMP DP  RH WIND       PRES   REMARKS
CUT BANK       PTSUNNY   52  22  30 W18G26    29.64R
GREAT FALLS    LGT RAIN  45  40  82 E12       29.65F
MALMSTROM AFB  LGT RAIN  45  41  85 SW14      29.67R
HELENA         CLOUDY    49  37  63 SW12      29.67R
$$

MTZ011-013-016-021-045-047-050-051-250100-
NORTH CENTRAL MONTANA

CITY           SKY/WX    TMP DP  RH WIND       PRES   REMARKS
HAVRE          PTSUNNY   60  31  33 W6        29.59F
LEWISTOWN      CLOUDY    56  36  47 N12       29.60S
CHINOOK          N/A     61  32  33 SW3       29.59F
FORT BENTON      N/A     55  36  47 S6        29.64S
$$

MTZ017>020-022>042-056>058-061-062-250100-
EASTERN PLAINS

CITY           SKY/WX    TMP DP  RH WIND       PRES   REMARKS
BAKER          MOSUNNY   67  31  26 SE12      29.58R
BILLINGS       PTSUNNY   69  27  20 CALM      29.52F
GLASGOW        MOSUNNY   66  33  29 NW10      29.57R
JORDAN           N/A     68  33  27 N15       29.56R
LIVINGSTON     PTSUNNY   59  36  42 N6        29.57F
MILES CITY     RAIN      55  49  80 NW8       29.60R
SIDNEY         MOSUNNY   70  34  26 CALM      29.57S
WOLF POINT     PTSUNNY   66  44  45 SE6       29.56S
BIG TIMBER       N/A     54  43  66 N8        29.57R
FORSYTH          N/A     57  48  72 SE12      29.55S VSB 1
PLENTYWOOD       N/A     64  30  27 E10       29.59F
POPLAR           N/A     66  43  42 S8        29.57F
$$

REGIONAL REPORTS...DAKOTAS

CITY           SKY/WX    TMP DP  RH WIND       PRES   REMARKS
WILLISTON      SUNNY     68  33  27 E10       29.59S
MINOT          SUNNY     62  34  35 E8        29.64S
DICKINSON      SUNNY     67  32  27 E13       29.58R
BEACH          FAIR      66  28  24 E6        29.59S
CROSBY         FAIR      63  32  31 E16       29.63S
WATFORD CITY   FAIR      66  32  28 E14       29.58S
BISMARCK       SUNNY     66  38  35 E10       29.61R
GRAND FORKS    CLOUDY    52  38  58 E14       29.75R
FARGO          CLOUDY    50  40  68 E21       29.72S
BUFFALO SD       N/A     68  32  26 E12       29.51S
RAPID CITY     PTSUNNY   67  42  40 NW5       29.55F
$$

REGIONAL REPORTS...WYOMING/IDAHO/WASHINGTON

CITY           SKY/WX    TMP DP  RH WIND       PRES   REMARKS
GILLETTE       CLOUDY    62  35  36 SE12      29.58R
SHERIDAN       MOSUNNY   61  39  44 NE10      29.57R
BUFFALO WY     CLOUDY    60  38  43 MISG      29.60R
CODY           PTSUNNY   63  30  29 E7        29.56R
YELLOWSTONE LA   N/A     40  30  67 CALM      29.73F
IDAHO FALLS    CLOUDY    53  37  54 S21G28    29.68R
SALMON         CLOUDY    45  37  76 N3        29.71R
BOISE          CLOUDY    57  33  40 NW9       29.73S
SPOKANE        PTSUNNY   50  28  42 SW18      29.77S
$$

REGIONAL REPORTS...ALBERTA

CITY           SKY/WX    TMP DP  RH WIND       PRES   REMARKS
EDMONTON       CLOUDY    39  30  70 E18       29.76R WCI  30
CALGARY        CLOUDY    48  37  66 N10       29.63R
LETHBRIDGE     CLOUDY    54  23  30 W21G31    29.62R
MEDICINE HAT   PTSUNNY   61  28  29 SW12G20   29.59S
$$

REGIONAL REPORTS...SASKATCHEWAN

CITY           SKY/WX    TMP DP  RH WIND       PRES   REMARKS
SWIFT CURRENT  PTSUNNY   57  37  47 E12G22    29.59R
REGINA         PTSUNNY   57  30  35 NE18      29.66S
SASKATOON      CLOUDY    52  34  50 SE14      29.72R
$$



USA.gov is the U.S. government's official web portal to all federal, state and local government web resources and services.